Weather History for KEKQ - October, 2013

Change the Weather History Date:

Sunday, October 13, 2013

  Actual Average Record
Temperature  
Mean Temperature 63 °F -  
Max Temperature 80 °F 72 °F - (-1)
Min Temperature 46 °F 47 °F - (-1)
Degree Days  
Heating Degree Days 2    
Growing Degree Days 13 (Base 50)    
Moisture  
Dew Point 55 °F    
Average Humidity 79    
Maximum Humidity 100    
Minimum Humidity 44    
Precipitation  
Precipitation 0.00 in - - ()
Sea Level Pressure  
Sea Level Pressure 30.24 in    
Wind  
Wind Speed 2 mph (North)    
Max Wind Speed 10 mph    
Max Gust Speed -    
Visibility 1 miles    
Events Fog    
Averages and records for this station are not official NWS values.
T = Trace of Precipitation, MM = Missing Value Source: NWS Daily Summary

Daily Weather History Graph

Daily Weather History Graph

Search for Another Location

Airport or City:

Trip Planner

Search our weather history database for the weather conditions in past years. The results will help you decide how hot, cold, wet, or windy it might be!

Date:

Astronomy

Oct. 13, 2013 Rise Set
Actual Time 6:45 AM CDT 6:05 PM CDT
Civil Twilight 6:19 AM CDT 6:31 PM CDT
Nautical Twilight 5:49 AM CDT 7:01 PM CDT
Astronomical Twilight 5:19 AM CDT 7:31 PM CDT
Moon 2:49 PM CDT (10/13) 1:02 AM CDT (10/13)
Length of Visible Light 12h 11m
Length of Day
11h 19m
Waxing Gibbous, 69% of the Moon is Illuminated
Oct 13
Waxing Gibbous
Oct 18
Full
Oct 26
Last Quarter
Nov 3
New
Nov 9
First Quarter

Hourly Weather History & Observations

Time (CDT) Temp. Heat Index Dew Point Humidity Pressure Visibility Wind Dir Wind Speed Gust Speed Precip Events Conditions
12:47 AM 51.8 °F - 51.8 °F 100% 30.18 in 0.5 mi Calm Calm - N/A Fog Fog
12:56 AM 50.0 °F - 50.0 °F 100% 30.18 in 0.5 mi Calm Calm - N/A Fog Fog
1:03 AM 50.0 °F - 50.0 °F 100% 30.18 in 0.8 mi Calm Calm - N/A   Clear
1:17 AM 51.8 °F - 51.8 °F 100% 30.18 in 1.2 mi Calm Calm - N/A   Clear
1:22 AM 50.0 °F - 50.0 °F 100% 30.18 in 0.8 mi Calm Calm - N/A   Clear
1:31 AM 50.0 °F - 50.0 °F 100% 30.18 in 0.5 mi Calm Calm - N/A Fog Fog
1:56 AM 48.9 °F - 48.9 °F 100% 30.19 in 0.5 mi Calm Calm - N/A Fog Fog
2:13 AM 48.2 °F - 48.2 °F 100% 30.19 in 0.2 mi Calm Calm - N/A Fog Fog
2:22 AM 48.2 °F - 48.2 °F 100% 30.19 in 0.8 mi Calm Calm - N/A   Clear
2:32 AM 50.0 °F - 50.0 °F 100% 30.19 in 1.2 mi Calm Calm - N/A   Clear
2:35 AM 50.0 °F - 50.0 °F 100% 30.18 in 0.8 mi Calm Calm - N/A   Clear
2:41 AM 48.2 °F - 48.2 °F 100% 30.18 in 0.2 mi Calm Calm - N/A Fog Fog
2:56 AM 47.8 °F - 47.8 °F 100% 30.19 in 0.2 mi Calm Calm - N/A Fog Fog
3:07 AM 48.2 °F - 48.2 °F 100% 30.19 in 0.5 mi Calm Calm - N/A Fog Fog
3:29 AM 48.2 °F - 48.2 °F 100% 30.19 in 1.0 mi Calm Calm - N/A   Clear
3:36 AM 50.0 °F - 50.0 °F 100% 30.19 in 1.5 mi Calm Calm - N/A   Clear
3:42 AM 48.2 °F - 48.2 °F 100% 30.19 in 1.0 mi Calm Calm - N/A   Clear
3:47 AM 48.2 °F - 48.2 °F 100% 30.19 in 0.5 mi Calm Calm - N/A Fog Fog
3:56 AM 48.9 °F - 48.9 °F 100% 30.20 in 0.5 mi Calm Calm - N/A Fog Fog
4:08 AM 48.2 °F - 48.2 °F 100% 30.20 in 0.8 mi Calm Calm - N/A   Clear
4:25 AM 48.2 °F - 48.2 °F 100% 30.20 in 0.5 mi Calm Calm - N/A Fog Fog
4:56 AM 48.9 °F - 48.9 °F 100% 30.21 in 0.5 mi Calm Calm - N/A Fog Fog
5:23 AM 46.4 °F - 46.4 °F 100% 30.22 in 0.8 mi Calm Calm - N/A   Clear
5:39 AM 48.2 °F - 48.2 °F 100% 30.22 in 0.2 mi Calm Calm - N/A Fog Fog
5:56 AM 46.9 °F - 46.9 °F 100% 30.24 in 0.8 mi Calm Calm - N/A   Clear
6:16 AM 46.4 °F - 46.4 °F 100% 30.23 in 0.5 mi Calm Calm - N/A Fog Fog
6:37 AM 46.4 °F - 46.4 °F 100% 30.23 in 0.8 mi Calm Calm - N/A   Clear
6:46 AM 46.4 °F - 46.4 °F 100% 30.23 in 0.2 mi Calm Calm - N/A Fog Fog
6:56 AM 46.9 °F - 46.9 °F 100% 30.25 in 0.2 mi Calm Calm - N/A Fog Fog
7:17 AM 48.2 °F - 48.2 °F 100% 30.24 in 0.5 mi Calm Calm - N/A Fog Fog
7:28 AM 48.2 °F - 48.2 °F 100% 30.24 in 0.2 mi Calm Calm - N/A Fog Fog
7:56 AM 52.9 °F - 52.9 °F 100% 30.27 in 0.2 mi Calm Calm - N/A Fog Fog
8:09 AM 55.4 °F - 53.6 °F 94% 30.26 in 0.5 mi Calm Calm - N/A Fog Fog
8:17 AM 55.4 °F - 53.6 °F 94% 30.26 in 0.2 mi Calm Calm - N/A Fog Fog
8:56 AM 61.0 °F - 56.8 °F 86% 30.29 in 0.2 mi Calm Calm - N/A Fog Fog
9:36 AM 64.4 °F - 59.0 °F 83% 30.28 in 0.5 mi Calm Calm - N/A   Haze
9:46 AM 66.2 °F - 60.8 °F 83% 30.28 in 0.2 mi Calm Calm - N/A   Haze
9:56 AM 66.9 °F - 59.9 °F 78% 30.29 in 0.5 mi Calm Calm - N/A   Haze
10:08 AM 69.8 °F - 60.8 °F 73% 30.28 in 0.2 mi Variable 3.5 mph - N/A   Haze
10:35 AM 73.4 °F - 60.8 °F 65% 30.28 in 0.5 mi Variable 3.5 mph - N/A   Haze
10:56 AM 74.8 °F - 59.9 °F 60% 30.29 in 0.8 mi Variable 4.6 mph - N/A   Haze
11:07 AM 75.2 °F - 60.8 °F 61% 30.28 in 0.5 mi NE 6.9 mph - N/A   Haze
11:56 AM 75.9 °F - 57.9 °F 54% 30.28 in 0.8 mi ENE 6.9 mph - N/A   Haze
12:31 PM 78.8 °F - 57.2 °F 47% 30.26 in 1.0 mi NE 5.8 mph - N/A   Haze
12:41 PM 78.8 °F - 55.4 °F 44% 30.26 in 0.8 mi North 9.2 mph - N/A   Haze
12:46 PM 78.8 °F - 55.4 °F 44% 30.26 in 1.2 mi NNW 10.4 mph - N/A   Haze
12:56 PM 79.0 °F - 55.9 °F 45% 30.26 in 1.2 mi NE 8.1 mph - N/A   Haze
12:59 PM 78.8 °F - 55.4 °F 44% 30.25 in 0.8 mi Variable 6.9 mph - N/A   Haze
1:28 PM 78.8 °F - 57.2 °F 47% 30.24 in 0.5 mi Variable 4.6 mph - N/A   Haze
1:43 PM 78.8 °F - 57.2 °F 47% 30.24 in 1.0 mi NNE 6.9 mph - N/A   Haze
1:56 PM 77.0 °F - 59.0 °F 54% 30.25 in 0.8 mi Calm Calm - N/A   Haze
2:04 PM 78.8 °F - 57.2 °F 47% 30.24 in 1.2 mi North 4.6 mph - N/A   Haze
2:08 PM 78.8 °F - 57.2 °F 47% 30.24 in 2.0 mi NNW 8.1 mph - N/A   Haze
2:16 PM 78.8 °F - 57.2 °F 47% 30.24 in 4.0 mi NW 6.9 mph - N/A   Haze
2:26 PM 80.6 °F 81.1 °F 59.0 °F 48% 30.23 in 1.8 mi NE 5.8 mph - N/A   Haze
2:34 PM 80.6 °F 80.8 °F 57.2 °F 45% 30.23 in 1.2 mi NNW 8.1 mph - N/A   Haze
2:44 PM 80.6 °F 80.8 °F 57.2 °F 45% 30.23 in 0.8 mi North 9.2 mph - N/A   Haze
2:56 PM 79.0 °F - 57.9 °F 48% 30.24 in 0.8 mi NNW 6.9 mph - N/A   Haze
3:03 PM 78.8 °F - 57.2 °F 47% 30.23 in 0.5 mi North 6.9 mph - N/A   Haze
3:10 PM 78.8 °F - 57.2 °F 47% 30.23 in 1.0 mi NW 6.9 mph - N/A   Haze
3:18 PM 78.8 °F - 57.2 °F 47% 30.23 in 0.5 mi NNW 6.9 mph - N/A   Haze
3:37 PM 78.8 °F - 57.2 °F 47% 30.23 in 0.8 mi North 3.5 mph - N/A   Haze
3:44 PM 80.6 °F 80.8 °F 57.2 °F 45% 30.23 in 0.2 mi NNW 9.2 mph - N/A   Haze
3:56 PM 79.0 °F - 57.9 °F 48% 30.23 in 0.2 mi NNW 6.9 mph - N/A   Haze
4:27 PM 78.8 °F - 57.2 °F 47% 30.22 in 0.5 mi North 5.8 mph - N/A   Haze
4:47 PM 78.8 °F - 57.2 °F 47% 30.22 in 0.2 mi NNW 6.9 mph - N/A   Haze
4:56 PM 77.9 °F - 57.9 °F 50% 30.23 in 0.2 mi North 6.9 mph - N/A   Haze
5:10 PM 77.0 °F - 57.2 °F 50% 30.22 in 0.5 mi NNE 6.9 mph - N/A   Haze
5:13 PM 77.0 °F - 57.2 °F 50% 30.22 in 1.0 mi North 8.1 mph - N/A   Haze
5:18 PM 75.2 °F - 57.2 °F 53% 30.22 in 1.5 mi NNE 9.2 mph - N/A   Haze
5:27 PM 75.2 °F - 57.2 °F 53% 30.22 in 3.0 mi NNE 6.9 mph - N/A   Haze
5:35 PM 73.4 °F - 57.2 °F 57% 30.22 in 1.5 mi North 5.8 mph - N/A   Haze
5:37 PM 73.4 °F - 57.2 °F 57% 30.22 in 0.8 mi North 5.8 mph - N/A   Haze
5:49 PM 73.4 °F - 57.2 °F 57% 30.22 in 0.5 mi North 5.8 mph - N/A   Haze
5:56 PM 72.0 °F - 57.9 °F 61% 30.24 in 0.2 mi NNW 4.6 mph - N/A   Haze
6:19 PM 68.0 °F - 57.2 °F 68% 30.23 in 0.2 mi North 5.8 mph - N/A   Haze
6:40 PM 69.8 °F - 59.0 °F 68% 30.24 in 0.8 mi North 5.8 mph - N/A   Haze
6:47 PM 68.0 °F - 59.0 °F 73% 30.24 in 1.2 mi Calm Calm - N/A   Haze
6:56 PM 66.9 °F - 59.0 °F 76% 30.26 in 6.0 mi Calm Calm - N/A   Haze
7:05 PM 64.4 °F - 59.0 °F 83% 30.25 in 1.8 mi Calm Calm - N/A   Haze
7:10 PM 64.4 °F - 57.2 °F 77% 30.25 in 1.0 mi Calm Calm - N/A   Haze
7:20 PM 64.4 °F - 57.2 °F 77% 30.25 in 1.5 mi Calm Calm - N/A   Haze
7:41 PM 62.6 °F - 57.2 °F 82% 30.26 in 1.0 mi Calm Calm - N/A   Haze
7:56 PM 61.9 °F - 57.9 °F 87% 30.28 in 1.2 mi Calm Calm - N/A   Clear
8:06 PM 62.6 °F - 57.2 °F 82% 30.26 in 0.8 mi Calm Calm - N/A   Clear
8:17 PM 60.8 °F - 57.2 °F 88% 30.27 in 1.0 mi Calm Calm - N/A   Clear
8:22 PM 60.8 °F - 57.2 °F 88% 30.27 in 0.5 mi Calm Calm - N/A Fog Fog
8:29 PM 60.8 °F - 57.2 °F 88% 30.27 in 1.0 mi Calm Calm - N/A   Clear
8:31 PM 60.8 °F - 57.2 °F 88% 30.27 in 1.5 mi Calm Calm - N/A   Clear
8:38 PM 59.0 °F - 57.2 °F 94% 30.27 in 1.0 mi Calm Calm - N/A   Clear
8:46 PM 59.0 °F - 57.2 °F 94% 30.28 in 0.8 mi Calm Calm - N/A   Clear
8:56 PM 59.0 °F - 56.8 °F 93% 30.29 in 0.5 mi Calm Calm - N/A Fog Fog
9:30 PM 57.2 °F - 57.2 °F 100% 30.28 in 1.0 mi ENE 3.5 mph - N/A   Clear
9:33 PM 59.0 °F - 57.2 °F 94% 30.27 in 2.5 mi NE 5.8 mph - N/A   Clear
9:41 PM 60.8 °F - 59.0 °F 94% 30.27 in 4.0 mi NNE 5.8 mph - N/A   Clear
9:56 PM 61.9 °F - 59.9 °F 93% 30.28 in 5.0 mi NE 3.5 mph - N/A   Clear
10:42 PM 60.8 °F - 57.2 °F 88% 30.29 in 1.5 mi Calm Calm - N/A   Mostly Cloudy
10:45 PM 60.8 °F - 57.2 °F 88% 30.29 in 1.0 mi Calm Calm - N/A   Mostly Cloudy
10:47 PM 59.0 °F - 57.2 °F 94% 30.29 in 0.5 mi Calm Calm - N/A Fog Fog
10:56 PM 59.9 °F - 59.0 °F 97% 30.29 in 0.2 mi Calm Calm - N/A Fog Fog
11:16 PM 62.6 °F - 60.8 °F 94% 30.29 in 0.8 mi Calm Calm - N/A   Mostly Cloudy
11:18 PM 62.6 °F - 60.8 °F 94% 30.29 in 1.2 mi Calm Calm - N/A   Mostly Cloudy
11:20 PM 62.6 °F - 60.8 °F 94% 30.29 in 2.0 mi Calm Calm - N/A   Mostly Cloudy
11:29 PM 60.8 °F - 60.8 °F 100% 30.29 in 1.2 mi Calm Calm - N/A   Mostly Cloudy
11:42 PM 60.8 °F - 60.8 °F 100% 30.28 in 2.0 mi ENE 5.8 mph - N/A   Partly Cloudy
11:56 PM 61.0 °F - 59.0 °F 93% 30.27 in 5.0 mi Calm Calm - N/A   Clear